Vertical_Velocity
-1 -1 -1 -1 -1 -1 -1 -1 -1 -1 -0 -0 -0 -0 -0 -0 -0 -0 -0 -0 -0 -1 -1 -1 -1 -1 -1 -1 -1 -1 -1 -2 -2 -2 -2 -2 -2 -2 -2 -2 -2 -2 -1 -1 -1 -1 -1 -1 -1 -1 -1 -1 -1 -1 -1 -1 -1 -1 -1 -1 -1 -1 -1 -1 -1 -0 -1 -1 -1 -1 -1 -1 -1 -1 -1 -1 -2 -2 -1 -1 -1 -1 -1 -1 -1 -1 -1 -1 -1 -1 -1 -1 -1 -1 -1 -0 -0 0 0 0 0 -0 -1
-1 -1 -1 -1 -1 -1 -1 -1 -1 -1 -0 -0 -0 -0 -0 -0 -0 -0 -0 -0 -1 -1 -1 -1 -1 -1 -1 -1 -1 -1 -1 -1 -1 -1 -1 -2 -2 -2 -2 -2 -2 -2 -2 -1 -1 -1 -1 -1 -1 -1 -1 -1 -1 -1 -1 -1 -1 -1 -1 -1 -1 -1 -0 -0 -0 -0 -0 -1 -1 -1 -1 -1 -1 -1 -1 -1 -2 -2 -2 -2 -2 -2 -2 -2 -2 -2 -2 -2 -1 -1 -1 -1 -1 -1 -1 -1 -1 -1 -0 0 0 0 0
-1 -1 -1 -1 -1 -1 -1 -1 -1 -1 -0 -0 -0 -0 -0 -0 -0 -0 -0 -0 -0 -1 -1 -1 -1 -1 -1 -1 -1 -1 -1 -1 -1 -1 -1 -1 -1 -1 -2 -2 -2 -2 -2 -2 -2 -1 -1 -1 -1 -1 -1 -1 -1 -1 -1 -1 -1 -1 -1 -1 -1 -1 -1 -0 -0 0 0 -0 -0 -1 -1 -1 -2 -2 -2 -2 -2 -2 -2 -2 -2 -2 -3 -3 -3 -3 -3 -3 -2 -2 -2 -2 -2 -2 -2 -2 -2 -2 -1 -1 -0 -0 -0
-1 -1 -1 -1 -1 -1 -1 -1 -1 -1 -1 -1 -0 -0 -0 -0 -0 -0 -0 -0 -0 -0 -0 -1 -0 -0 -1 -1 -1 -1 -1 -1 -1 -1 -1 -1 -1 -1 -1 -1 -1 -2 -2 -2 -2 -2 -2 -2 -2 -1 -1 -1 -1 -1 -1 -1 -1 -1 -1 -1 -1 -1 -1 -1 -0 0 0 0 0 -0 -1 -1 -2 -2 -2 -2 -3 -3 -3 -2 -2 -2 -2 -3 -3 -3 -3 -3 -3 -3 -2 -2 -2 -2 -2 -2 -2 -2 -2 -1 -1 -1 -1
-1 -1 -1 -0 -0 -0 -0 -0 -0 -1 -1 -1 -0 -0 -0 0 0 -0 -0 -0 -0 -0 -0 -0 -0 -0 -1 -1 -1 -1 -1 -1 -1 -1 -1 -1 -1 -1 -1 -1 -1 -1 -1 -1 -1 -1 -1 -2 -2 -2 -1 -1 -1 -1 -1 -1 -1 -1 -1 -1 -1 -1 -1 -1 -1 -0 0 0 0 0 -0 -0 -1 -1 -1 -2 -2 -2 -2 -2 -2 -2 -2 -2 -2 -2 -3 -3 -3 -3 -3 -3 -2 -2 -2 -2 -2 -2 -2 -2 -2 -2 -1
-1 -1 -0 -0 -0 -0 -0 -0 -0 -0 -1 -1 -1 -0 -0 -0 0 0 0 0 0 0 0 -0 -0 -0 -0 -0 -1 -1 -1 -0 -0 -0 -1 -0 -0 -0 -0 -1 -1 -1 -1 -1 -1 -1 -1 -1 -1 -1 -1 -1 -1 -1 -1 -1 -1 -1 -1 -1 -1 -1 -1 -1 -1 -1 -1 -0 -0 -0 -0 0 0 0 -0 -0 -1 -1 -2 -2 -2 -2 -1 -1 -1 -2 -2 -2 -2 -2 -2 -3 -2 -2 -2 -2 -2 -2 -2 -2 -2 -2 -1
-1 -1 -1 -0 -0 -0 -0 -0 -0 -0 -1 -1 -1 -1 -0 -0 -0 0 0 0 0 0 0 0 0 -0 -0 -0 -0 -0 -0 -0 -0 -0 -0 -0 -0 -0 -0 -0 -0 -0 -0 -0 -0 -0 -0 -1 -1 -1 -1 -1 -1 -1 -1 -1 -1 -1 -1 -1 -1 -1 -1 -1 -2 -1 -1 -1 -0 0 0 1 1 1 2 2 1 1 -0 -1 -1 -1 -1 -1 -1 -1 -1 -1 -1 -1 -2 -2 -2 -2 -2 -2 -2 -2 -2 -2 -2 -2 -2
-1 -1 -1 -1 -1 -1 -1 -1 -1 -1 -1 -1 -1 -1 -1 -0 -0 -0 0 0 0 0 0 0 0 0 0 0 0 0 0 0 0 0 0 0 0 0 0 0 0 0 0 0 0 0 0 -0 -0 -0 -0 -0 -0 -0 -1 -1 -1 -1 -1 -1 -1 -1 -1 -1 -1 -1 -1 -1 -0 0 1 1 1 2 3 4 4 4 3 2 1 0 -0 -0 -1 -1 -1 -1 -1 -1 -1 -1 -1 -1 -2 -2 -2 -2 -2 -2 -2 -2 -2
-1 -1 -1 -1 -1 -1 -1 -1 -1 -1 -1 -1 -1 -1 -1 -1 -0 -0 -0 -0 -0 0 0 0 0 0 0 1 1 1 1 1 1 1 1 1 1 1 1 1 1 1 1 1 1 1 1 0 0 0 0 0 0 0 0 0 -0 -0 -0 -0 -0 -0 -0 -0 -0 -0 -1 -1 -0 -0 0 0 1 1 2 3 4 5 5 4 4 3 3 2 1 0 -1 -2 -2 -1 -1 -1 -1 -1 -1 -1 -1 -1 -1 -2 -2 -2 -2
-1 -1 -1 -1 -1 -1 -1 -1 -1 -1 -1 -1 -1 -1 -1 -1 -0 -0 -0 -0 -0 -0 -0 0 0 0 1 1 1 1 1 1 1 1 1 1 1 1 1 1 1 1 1 1 1 1 1 1 0 0 0 1 1 1 1 1 1 0 0 0 0 0 0 0 0 0 0 -0 -0 -1 -1 -1 -1 -1 -0 0 1 2 3 3 3 3 4 4 4 4 2 -0 -1 -2 -2 -2 -2 -2 -2 -2 -2 -2 -2 -2 -2 -2 -2
-1 -1 -1 -1 -1 -1 -1 -1 -1 -1 -1 -1 -1 -1 -0 -0 -0 -0 -0 -0 -0 -0 -0 -0 -0 0 0 0 1 1 1 1 1 1 1 1 1 1 1 1 1 1 1 1 1 1 1 1 0 0 0 0 1 1 1 1 1 1 1 1 1 0 0 0 0 0 0 0 -0 -1 -1 -1 -1 -1 -1 -1 -1 -1 -0 0 1 1 1 2 4 4 5 3 2 1 0 -1 -1 -2 -2 -3 -3 -3 -3 -2 -2 -2 -2
-1 -1 -1 -1 -1 -1 -1 -1 -1 -1 -1 -1 -0 -0 -0 -0 -0 -0 -0 0 -0 -0 -0 -0 -0 -0 -0 -0 0 0 0 0 0 1 1 1 1 1 1 1 1 1 1 1 1 1 0 0 0 0 -0 -0 -0 0 -0 0 0 0 0 0 0 0 0 0 0 -0 -0 -0 -0 -0 -1 -1 -1 -2 -2 -2 -2 -2 -2 -1 -1 -1 -1 -0 0 1 3 3 3 3 3 2 1 0 -1 -2 -2 -3 -3 -3 -3 -3 -3
-1 -1 -1 -1 -1 -1 -1 -1 -1 -1 -1 -1 -0 -0 -0 -0 -0 0 0 0 0 0 0 -0 -0 -0 -0 -0 -0 -0 -0 -0 -0 -0 0 0 0 0 0 0 1 1 1 1 1 0 0 0 -0 -0 -0 -0 -0 -1 -1 -1 -1 -1 -1 -1 -1 -1 -0 -0 -1 -1 -1 -1 -1 -1 -1 -1 -1 -1 -2 -2 -2 -2 -3 -2 -2 -2 -2 -2 -1 -1 -0 0 1 1 2 2 3 3 2 1 0 -0 -1 -2 -3 -4 -4
-1 -1 -1 -1 -1 -1 -1 -1 -1 -1 -1 -0 -0 -0 -0 0 0 0 0 0 0 0 0 0 -0 -0 -0 -1 -1 -1 -1 -1 -1 -0 -0 -0 -0 -0 -0 0 0 0 0 0 0 0 0 0 -0 -0 -1 -1 -1 -1 -1 -1 -1 -1 -1 -1 -1 -1 -1 -1 -1 -1 -1 -1 -2 -2 -2 -2 -2 -2 -2 -2 -2 -2 -3 -3 -2 -2 -2 -2 -2 -2 -1 -1 -1 -1 -1 -0 1 1 2 2 3 2 2 1 -0 -1 -2
-1 -1 -1 -1 -1 -1 -0 -0 -0 -0 -0 -0 -0 0 0 0 0 0 0 0 0 0 0 0 0 -0 -0 -0 -1 -1 -1 -1 -1 -1 -1 -1 -1 -1 -1 -0 -0 -0 -0 -0 0 0 0 0 -0 -0 -0 -1 -1 -1 -1 -1 -2 -2 -2 -2 -2 -2 -2 -2 -2 -2 -2 -2 -2 -2 -2 -2 -2 -2 -2 -2 -2 -2 -2 -2 -2 -2 -2 -2 -2 -2 -2 -1 -1 -1 -1 -2 -1 -1 -0 1 2 3 3 3 3 2 1
-1 -1 -1 -1 -1 -1 -0 -0 -0 0 0 0 0 0 0 0 0 0 0 0 0 0 0 0 0 0 -0 -0 -0 -0 -0 -0 -0 -0 -0 -0 -1 -1 -1 -1 -1 -0 -0 -0 -0 -0 -0 0 -0 -0 -0 -0 -1 -1 -1 -1 -1 -2 -2 -2 -2 -2 -2 -2 -2 -2 -2 -2 -2 -2 -2 -2 -2 -2 -2 -2 -1 -2 -2 -2 -2 -2 -2 -2 -2 -2 -2 -2 -1 -1 -1 -2 -2 -1 -1 -1 -0 1 1 2 3 3 4
-1 -0 -0 -0 -0 -0 -0 -0 0 0 0 0 0 0 0 0 0 0 -0 -0 -0 -0 -0 -0 -0 0 -0 -0 -0 -0 -0 -0 0 0 0 0 -0 -0 -0 -1 -1 -1 -1 -1 -1 -1 -0 -0 -0 -0 -0 -0 -0 -1 -1 -1 -1 -1 -1 -2 -2 -2 -2 -2 -2 -2 -2 -2 -2 -2 -2 -2 -2 -2 -2 -2 -1 -1 -1 -1 -1 -1 -1 -1 -1 -1 -1 -1 -1 -1 -1 -1 -1 -1 -1 -1 -1 -0 -0 0 1 2 2
-1 -0 -0 -0 -0 -0 -0 -0 0 0 0 0 0 0 0 0 0 0 -0 -0 -0 -0 -0 -0 -0 -0 -0 -0 -0 -0 -0 -0 -0 0 1 0 0 0 -0 -0 -0 -0 -1 -1 -1 -1 -1 -1 -1 -0 -0 -0 -1 -1 -1 -1 -1 -1 -1 -1 -1 -2 -2 -2 -2 -2 -2 -2 -2 -2 -2 -2 -2 -2 -2 -2 -2 -1 -1 -1 -1 -1 -1 -1 -1 -1 -1 -1 -1 -1 -1 -1 -1 -1 -1 -1 -1 -0 -0 -0 -0 0 1
-0 -0 -0 -0 -0 0 0 0 0 0 0 0 0 0 0 0 0 0 0 0 0 -0 -0 -0 -0 -0 -0 -0 -0 -0 -1 -1 -1 -1 -0 0 0 0 -0 -0 -0 -0 -0 -0 -1 -1 -1 -1 -1 -1 -0 -0 -1 -1 -1 -1 -1 -1 -1 -1 -1 -1 -1 -2 -2 -1 -1 -1 -1 -1 -1 -1 -1 -2 -2 -2 -2 -1 -1 -1 -1 -1 -1 -1 -1 -1 -1 -1 -1 -1 -1 -1 -1 -1 -1 -1 -0 -0 -0 -1 -1 -0 0
-0 -0 -0 0 0 0 0 0 0 0 0 0 0 0 0 0 0 0 0 0 0 0 0 0 0 0 -0 -0 -0 -0 -1 -1 -1 -2 -1 -1 -0 -0 -0 -0 -0 -0 -0 -0 -0 -0 -1 -1 -1 -1 -1 -0 -0 -0 -0 -1 -1 -1 -1 -1 -1 -1 -1 -1 -1 -1 -1 -1 -1 -1 -1 -1 -1 -1 -1 -2 -2 -2 -2 -2 -2 -2 -2 -2 -2 -2 -1 -1 -1 -1 -1 -1 -1 -1 -1 -1 -1 -0 -1 -1 -1 -1 -0
0 0 0 0 0 0 0 0 1 1 0 0 0 1 1 1 1 1 1 1 1 1 1 0 0 0 0 0 -0 -0 -0 -0 -1 -2 -2 -2 -1 -1 -1 -1 -1 -1 -1 -0 -0 -0 -0 -0 -0 -1 -1 -0 -0 -0 0 -0 -1 -1 -1 -1 -1 -1 -1 -1 -1 -1 -1 -1 -1 -1 -1 -1 -1 -1 -1 -1 -2 -2 -2 -2 -2 -2 -2 -2 -2 -2 -2 -2 -2 -2 -2 -2 -2 -2 -1 -1 -1 -1 -1 -1 -1 -2 -1
0 0 1 1 1 1 1 1 1 1 1 1 1 1 1 1 1 1 1 1 1 1 1 1 1 1 1 0 0 0 0 0 0 -1 -1 -2 -2 -1 -1 -1 -1 -1 -1 -0 -0 -0 -0 -0 -0 -0 -1 -1 -0 0 0 0 0 -0 -1 -1 -1 -1 -1 -1 -1 -1 -1 -1 -1 -1 -1 -1 -1 -1 -1 -1 -1 -2 -2 -2 -2 -2 -2 -2 -2 -2 -2 -2 -2 -2 -2 -2 -2 -2 -2 -1 -1 -1 -1 -1 -2 -2 -2
-0 0 1 1 1 1 1 1 1 1 1 1 1 0 0 1 1 1 1 1 0 0 0 1 1 1 1 1 1 1 1 1 1 1 -0 -1 -1 -1 -1 -1 -1 -1 -1 -0 -0 -0 -0 -0 -0 -0 -1 -1 -1 -0 0 0 1 0 0 -0 -0 -1 -1 -1 -1 -1 -1 -1 -1 -1 -1 -1 -1 -1 -1 -1 -1 -1 -2 -2 -2 -2 -2 -2 -2 -2 -2 -2 -2 -2 -3 -3 -3 -3 -2 -2 -2 -1 -1 -1 -2 -2 -2
-1 -0 -0 0 1 1 1 1 1 1 1 1 1 0 -0 0 0 0 1 1 0 0 0 0 1 1 1 1 1 1 1 1 1 1 1 1 0 -0 -0 -0 -0 -0 -0 -0 -0 0 0 -0 -0 -0 -1 -1 -1 -1 -0 0 0 1 1 0 0 -0 -0 -0 -0 -0 -0 -1 -1 -1 -1 -1 -1 -1 -1 -1 -1 -1 -1 -1 -2 -2 -1 -2 -2 -2 -2 -2 -2 -2 -3 -3 -3 -3 -3 -2 -2 -2 -2 -2 -2 -2 -2
-0 -1 -0 -0 0 0 1 1 0 0 0 1 1 0 -0 -0 -0 -0 -0 0 0 0 0 0 0 0 1 1 1 1 0 0 1 1 2 2 1 1 1 0 0 -0 -0 -0 0 0 0 0 0 0 -0 -1 -1 -1 -1 -1 -0 0 0 0 0 0 -0 -0 -0 -0 0 -0 -0 -1 -1 -1 -1 -1 -2 -2 -2 -2 -2 -1 -1 -1 -1 -2 -2 -2 -2 -2 -2 -2 -2 -2 -3 -3 -3 -3 -3 -2 -2 -2 -2 -1 -2
0 0 -0 -0 -0 0 1 1 0 0 -0 0 1 1 0 -0 -1 -1 -1 -0 -0 0 0 -0 -0 -0 -0 -0 -0 -0 -0 -0 -0 0 1 2 2 2 1 1 1 0 0 -0 -0 -0 0 0 0 0 0 -0 -0 -1 -1 -1 -1 -0 0 0 0 0 -0 -0 -0 -0 -0 -0 -0 -0 -1 -1 -1 -1 -1 -2 -2 -2 -2 -2 -2 -1 -1 -1 -2 -2 -2 -2 -2 -2 -2 -2 -2 -3 -3 -3 -3 -3 -3 -2 -2 -2 -2
2 1 0 -0 -0 -0 0 0 0 0 0 0 1 1 1 1 0 -0 -1 -1 -1 -0 -0 -0 -1 -1 -1 -1 -1 -1 -1 -1 -0 -0 -0 0 1 2 2 1 1 1 0 0 -0 -0 -0 -0 0 0 0 0 -0 -1 -1 -1 -1 -1 -0 -0 -0 -0 -0 -0 -0 -1 -0 -0 -0 -0 -1 -1 -1 -1 -1 -2 -2 -2 -2 -2 -2 -2 -2 -2 -1 -1 -1 -1 -2 -2 -2 -2 -2 -2 -3 -3 -3 -3 -3 -2 -2 -1 -1
3 2 1 1 0 0 0 0 0 0 0 0 0 1 1 1 1 0 0 -0 -1 -0 -0 -0 -1 -1 -2 -1 -1 -1 -1 -0 -0 -0 -0 -0 -0 0 1 1 1 1 1 0 -0 -0 -0 -0 -0 -0 -0 0 -0 -0 -1 -1 -1 -1 -1 -1 -0 -0 -0 -0 -0 -0 -1 -0 -0 -0 -0 -1 -1 -1 -1 -1 -2 -2 -2 -3 -3 -3 -2 -2 -2 -2 -1 -1 -1 -2 -2 -2 -2 -2 -3 -3 -3 -3 -3 -3 -2 -2 -1
3 3 2 1 1 1 0 -0 -0 -0 -0 -0 -0 -0 0 1 1 1 1 0 0 -0 0 -0 -0 -0 -1 -1 -1 -0 0 0 -0 -0 -0 -1 -1 -1 -0 -0 0 0 0 0 -0 -0 -1 -1 -1 -1 -1 -1 -0 -0 -1 -1 -1 -2 -1 -1 -1 -0 -0 -0 -0 -0 -0 -0 -0 -0 -0 -0 -1 -1 -1 -1 -1 -1 -2 -3 -3 -3 -3 -3 -3 -2 -2 -2 -2 -1 -1 -2 -2 -2 -3 -2 -2 -2 -3 -3 -2 -2 -1
2 2 2 2 2 2 1 -0 -0 -1 -1 -1 -1 -1 -1 -0 1 1 1 1 0 0 0 0 0 0 -0 -0 -0 -0 0 0 0 -0 -0 -0 -1 -1 -1 -1 -1 -1 -0 -0 -0 -1 -1 -1 -1 -1 -1 -1 -1 -1 -1 -1 -1 -1 -1 -1 -1 -1 -0 -0 -0 -0 -0 -0 -0 -0 -0 -0 -0 -1 -1 -1 -1 -1 -2 -2 -2 -3 -3 -4 -4 -3 -3 -2 -2 -2 -1 -1 -1 -2 -2 -3 -3 -3 -3 -3 -3 -2 -1
1 1 1 2 2 3 2 1 1 0 -0 -0 -1 -1 -2 -1 -0 0 1 1 0 0 0 0 0 0 -0 -0 -0 -0 -0 0 0 -0 -0 -0 -1 -1 -1 -1 -1 -1 -1 -1 -1 -1 -1 -1 -1 -1 -1 -1 -1 -0 -0 -0 -1 -1 -1 -1 -1 -1 -1 -0 -0 -1 -1 -1 -1 -1 -0 -0 -0 -0 -1 -1 -1 -1 -1 -2 -2 -2 -3 -3 -4 -4 -3 -3 -3 -2 -2 -2 -1 -2 -2 -2 -3 -3 -3 -3 -3 -2 -2
-0 -0 0 1 2 2 3 2 2 2 1 0 0 -0 -1 -1 -1 -0 0 1 1 0 0 0 0 0 -0 -0 -1 -1 -0 0 -0 -0 -0 -0 -0 -1 -1 -1 -1 -1 -1 -1 -1 -1 -1 -1 -1 -1 -1 -1 -1 -0 -0 -0 -1 -1 -1 -2 -1 -1 -1 -1 -1 -1 -1 -1 -1 -1 -1 -1 -0 -0 -0 -1 -1 -1 -2 -2 -2 -2 -2 -3 -3 -4 -4 -4 -3 -3 -2 -2 -2 -2 -2 -2 -2 -3 -3 -3 -3 -3 -3
-1 -1 -1 -0 1 1 2 2 3 2 1 1 1 1 -0 -1 -1 -0 0 0 0 0 0 0 0 0 0 -0 -1 -1 -0 -0 -0 -0 -0 -0 -0 -0 -1 -0 -1 -1 -1 -0 -1 -1 -0 -0 -0 -1 -1 -1 -1 -0 -0 -0 -0 -1 -1 -2 -2 -2 -2 -1 -1 -1 -1 -1 -1 -1 -1 -1 -1 -1 -1 -1 -1 -1 -2 -2 -2 -2 -2 -2 -3 -3 -3 -3 -4 -3 -3 -3 -3 -2 -3 -3 -3 -3 -3 -3 -4 -4 -4
-1 -1 -1 -1 -0 0 1 2 2 2 1 1 1 1 0 -0 -1 -1 -0 -0 0 0 1 1 0 0 1 0 0 -0 -0 -0 -0 0 -0 0 0 -0 -0 -0 -1 -1 -1 -0 -0 -1 -0 -0 -0 -0 -0 -0 -0 -0 -0 0 -0 -0 -1 -1 -2 -2 -2 -2 -1 -1 -1 -1 -1 -2 -2 -2 -2 -1 -1 -1 -1 -1 -1 -2 -2 -2 -2 -2 -2 -2 -3 -3 -3 -4 -4 -3 -3 -3 -3 -3 -3 -3 -3 -3 -4 -4 -4
0 -0 -1 -1 -1 -0 0 1 1 1 1 1 1 1 1 0 -0 -1 -1 -0 -0 0 0 0 0 1 1 1 1 0 0 0 0 0 1 0 0 -0 -0 -0 -1 -1 -1 -1 -0 -0 -0 -0 -0 -0 0 -0 -0 0 0 0 0 0 -0 -1 -1 -1 -1 -2 -1 -1 -1 -1 -1 -1 -2 -2 -2 -2 -1 -1 -1 -1 -1 -1 -2 -2 -2 -2 -2 -2 -2 -2 -3 -3 -4 -4 -4 -4 -4 -4 -4 -3 -3 -4 -4 -4 -4
1 0 -0 -0 -1 -0 0 1 1 0 -0 0 0 1 0 0 -0 -1 -1 -1 -0 -0 -0 0 0 1 1 1 1 1 0 -0 -0 0 1 1 0 0 0 -0 -1 -1 -0 -1 -1 -1 -0 -0 -0 -0 0 0 0 0 0 1 1 1 0 -0 -0 -1 -1 -1 -2 -1 -1 -1 -1 -1 -1 -1 -1 -1 -1 -1 -1 -1 -1 -1 -1 -1 -2 -2 -2 -2 -2 -2 -3 -3 -4 -4 -4 -4 -4 -4 -4 -4 -4 -4 -4 -4 -4
1 0 0 0 -0 0 0 1 0 -0 -1 -0 0 1 1 0 -0 -1 -1 -1 -1 -1 -1 -1 0 1 1 1 1 1 -0 -0 -0 0 1 1 0 1 1 0 -0 -1 -0 -0 -0 -1 -0 -1 -1 -1 -0 -0 -0 -0 0 1 1 1 0 0 -0 -0 -1 -1 -2 -2 -1 -1 -1 -1 -1 -1 -1 -1 -1 -1 -1 -1 -1 -1 -1 -1 -2 -2 -2 -2 -2 -2 -2 -3 -3 -4 -4 -4 -4 -4 -4 -4 -4 -4 -4 -4 -4
0 0 0 0 0 1 1 1 0 -0 -1 -1 0 1 1 0 -0 -0 -0 -0 -1 -1 -1 -1 -1 0 1 1 1 1 -0 -0 -0 0 1 0 0 1 1 0 0 0 0 -0 -0 -0 -0 -1 -1 -1 -1 -1 -1 -1 -0 0 1 0 0 0 0 -0 -0 -1 -2 -2 -2 -2 -1 -1 -1 -1 -1 -1 -1 -1 -1 -1 -1 -1 -2 -2 -2 -2 -2 -2 -2 -2 -2 -2 -2 -3 -3 -4 -3 -3 -3 -3 -4 -3 -3 -3 -4
0 0 0 0 1 1 2 1 0 -0 -0 -0 0 1 1 0 0 0 1 0 -0 -1 -1 -1 -1 -1 0 1 1 1 0 0 0 1 1 1 1 1 1 0 0 0 0 -0 -0 -0 -0 -1 -1 -1 -2 -2 -1 -1 -1 -0 -0 -0 -0 -0 -0 -0 -0 -1 -1 -2 -2 -2 -2 -2 -1 -1 -1 -1 -1 -1 -1 -1 -2 -2 -2 -3 -3 -3 -2 -2 -2 -2 -1 -1 -1 -1 -2 -2 -2 -2 -2 -2 -2 -2 -3 -3 -3
0 1 1 1 1 1 2 1 1 0 0 -0 0 1 1 1 1 1 1 1 0 -0 -0 -1 -2 -2 -1 0 0 0 0 0 0 1 1 1 1 0 0 -0 -0 0 -0 -1 -1 -1 -1 -1 -1 -2 -2 -2 -2 -1 -1 -1 -1 -1 -1 -0 -0 -0 -0 -1 -1 -2 -2 -2 -2 -2 -2 -2 -2 -2 -2 -2 -2 -2 -2 -3 -3 -3 -3 -3 -3 -3 -2 -2 -1 -1 -0 0 0 0 -0 -0 -1 -1 -1 -2 -2 -2 -2
1 1 1 1 1 2 2 1 1 1 0 0 1 1 1 1 1 1 1 1 0 0 0 0 -1 -1 -2 -1 -1 -1 -1 -0 0 1 1 1 0 -0 -1 -1 -1 -0 -0 -1 -1 -1 -1 -1 -1 -2 -2 -2 -1 -1 -1 -1 -1 -1 -1 -1 -0 -0 -0 -0 -1 -1 -2 -2 -2 -2 -2 -2 -2 -2 -2 -2 -2 -2 -3 -3 -3 -4 -4 -4 -4 -3 -3 -2 -2 -1 -1 0 1 1 2 1 1 0 -0 -1 -1 -2 -2
1 1 1 1 2 2 2 2 2 1 1 1 1 1 1 2 2 2 1 1 1 0 0 1 0 -0 -1 -2 -1 -1 -1 -1 -0 1 1 0 0 -0 -1 -1 -1 -1 -1 -1 -1 -1 -1 -1 -1 -2 -2 -2 -1 -0 -0 -1 -1 -1 -1 -1 -1 -0 -0 -0 -1 -1 -1 -1 -2 -2 -2 -2 -3 -3 -3 -2 -2 -2 -2 -3 -3 -3 -4 -4 -4 -4 -4 -3 -3 -2 -2 -1 -0 1 1 1 1 0 -0 -1 -1 -2 -2
1 1 1 2 2 2 3 3 2 2 1 1 1 1 1 2 3 3 2 2 1 0 0 1 1 0 -1 -2 -2 -1 -1 -1 -0 0 0 -0 -0 -0 -1 -1 -1 -1 -1 -0 -0 -1 -1 -2 -2 -2 -2 -1 -1 -0 -0 -1 -1 -1 -1 -1 -1 -1 -1 -1 -1 -1 -1 -1 -1 -1 -1 -2 -2 -3 -3 -2 -2 -2 -2 -3 -3 -3 -3 -4 -4 -4 -4 -4 -4 -4 -4 -3 -2 -1 -0 0 0 -0 -1 -1 -2 -2 -2
1 1 1 1 2 2 3 3 3 2 1 1 1 1 1 2 3 3 3 3 2 1 -0 1 1 1 -0 -1 -1 -1 -1 -0 -0 -0 -1 -1 -1 -1 -1 -1 -1 -0 -0 0 0 -0 -1 -2 -2 -2 -2 -1 -1 -1 -1 -1 -1 -1 -1 -1 -1 -1 -1 -1 -2 -2 -2 -1 -1 -1 -1 -1 -1 -2 -2 -2 -2 -2 -2 -2 -3 -3 -3 -4 -4 -4 -4 -5 -5 -5 -5 -5 -4 -3 -2 -1 -1 -1 -1 -1 -2 -2 -3
1 1 1 1 2 2 2 3 3 2 1 1 1 1 2 2 3 3 3 3 3 2 0 0 1 1 0 -0 -1 -1 -0 0 0 -0 -1 -1 -1 -1 -2 -1 -0 0 0 1 1 0 -1 -2 -2 -2 -2 -1 -1 -1 -1 -1 -1 -2 -2 -1 -1 -1 -1 -2 -2 -2 -2 -2 -1 -1 -1 -1 -1 -1 -1 -1 -1 -1 -2 -2 -3 -4 -4 -4 -4 -5 -5 -5 -5 -6 -6 -6 -5 -4 -4 -3 -2 -2 -1 -2 -2 -3 -3
1 1 0 1 2 2 2 2 2 2 1 1 1 1 2 3 3 3 3 3 3 2 1 1 -0 -0 0 1 1 0 0 1 1 0 -1 -1 -2 -2 -2 -1 0 1 1 1 0 -0 -2 -2 -2 -2 -2 -1 -1 -1 -1 -1 -2 -2 -2 -2 -1 -1 -1 -2 -2 -2 -2 -2 -1 -1 -1 -1 -1 -1 -1 -1 -1 -1 -2 -3 -3 -4 -4 -5 -5 -5 -5 -5 -6 -6 -6 -6 -6 -5 -4 -4 -3 -3 -2 -2 -2 -3 -3
1 1 1 1 2 2 2 2 1 1 1 1 1 1 1 3 3 3 2 2 2 2 3 2 -0 -1 -1 0 1 1 1 2 2 1 -1 -2 -2 -2 -2 -1 0 1 2 1 -0 -1 -1 -2 -2 -1 -1 -1 -1 -1 -1 -2 -2 -3 -3 -2 -2 -1 -1 -1 -2 -2 -2 -2 -1 -1 -2 -2 -2 -2 -2 -1 -1 -1 -1 -2 -3 -4 -4 -4 -4 -4 -4 -4 -5 -6 -6 -6 -6 -5 -5 -5 -4 -4 -3 -3 -3 -3 -3
2 1 1 2 2 2 2 2 2 1 1 0 0 0 1 2 2 1 2 2 2 1 3 2 1 -1 -1 -1 0 2 3 2 2 2 -1 -4 -5 -3 0 1 -0 -0 1 1 -0 -1 -1 -1 -1 -1 0 -1 -1 -1 -1 -2 -3 -3 -3 -2 -2 -1 -1 -1 -2 -2 -2 -2 -1 -1 -2 -2 -2 -2 -2 -2 -1 -1 -1 -1 -2 -3 -3 -4 -4 -4 -4 -4 -5 -5 -6 -6 -5 -5 -5 -5 -5 -4 -4 -4 -4 -4 -4
2 2 2 3 3 2 2 3 2 2 1 1 0 1 2 1 1 0 1 2 2 2 2 1 1 1 -0 -2 -1 1 3 3 3 2 -0 -4 -6 -4 -0 2 1 -1 -3 -1 -1 -1 -1 -0 -0 -0 1 0 0 -0 -1 -2 -3 -4 -3 -2 -2 -1 -1 -1 -2 -2 -2 -2 -1 -1 -2 -3 -3 -3 -2 -2 -2 -1 -1 -1 -1 -2 -2 -3 -3 -3 -3 -4 -4 -5 -5 -5 -5 -5 -5 -5 -4 -4 -5 -4 -4 -4 -4
3 2 3 3 3 3 3 3 3 2 1 1 1 1 1 0 -0 -0 0 0 1 2 1 -1 0 2 2 -2 -1 1 2 2 3 2 -2 -4 -1 0 -3 -2 -2 -2 -4 -1 0 1 -0 -1 -1 0 2 2 2 1 -1 -2 -3 -4 -3 -2 -1 -1 -1 -1 -2 -2 -2 -2 -1 -1 -2 -3 -3 -2 -2 -2 -2 -1 -1 -1 -1 -1 -1 -2 -3 -3 -3 -3 -4 -4 -5 -4 -4 -4 -4 -4 -4 -4 -4 -4 -4 -4 -4
4 3 3 4 4 4 4 4 3 2 2 2 1 1 1 0 0 -0 -0 -0 0 1 1 -2 -1 0 2 -0 -1 -0 1 0 2 2 -2 -4 2 7 1 -5 -9 -9 -6 1 3 3 3 -2 -2 1 4 4 3 2 -1 -2 -3 -3 -2 -1 -1 -1 -1 -2 -2 -2 -2 -1 -1 -1 -1 -2 -2 -2 -2 -1 -1 -1 -2 -2 -2 -2 -1 -2 -2 -2 -2 -3 -3 -4 -4 -4 -4 -4 -4 -4 -4 -3 -3 -4 -4 -4 -4
4 4 4 3 3 3 4 4 3 2 3 2 1 0 1 1 0 0 0 0 0 1 1 -0 -1 -2 -1 0 0 0 1 0 1 1 2 -2 -1 2 3 -0 -9 -14 -7 -0 -3 -4 6 -1 1 5 8 5 3 1 -1 -2 -2 -2 -1 -1 -1 -1 -0 -1 -2 -2 -1 -0 0 -0 -1 -2 -2 -2 -1 -1 -1 -1 -1 -2 -2 -2 -2 -2 -1 -1 -1 -2 -2 -2 -3 -3 -3 -4 -4 -4 -3 -3 -2 -2 -2 -2 -3
3 3 3 2 2 2 3 2 2 3 4 2 0 0 1 1 1 1 1 1 1 1 1 1 1 -1 -5 -3 -1 1 1 3 1 0 2 3 -1 -5 -6 1 -4 -8 2 2 -15 -24 -5 4 6 7 14 12 5 -1 -1 -0 -1 -1 0 -1 -1 -0 0 -0 -1 -1 -0 1 1 0 -1 -1 -1 -1 -1 -0 -0 -1 -1 -1 -2 -2 -2 -2 -2 -1 -1 -1 -2 -2 -2 -2 -2 -3 -3 -3 -3 -2 -2 -1 -1 -1 -2
2 2 2 2 2 2 2 2 2 3 3 2 1 0 -0 0 1 2 2 1 1 1 1 1 3 2 -2 -4 -2 0 0 2 2 1 -0 2 3 -0 -12 -7 -3 1 4 5 -12 -28 -27 6 10 2 1 12 9 1 0 4 3 1 1 0 0 1 1 1 1 1 1 2 2 1 -0 -0 -1 -1 -1 -0 -0 -0 -1 -1 -2 -2 -2 -2 -2 -2 -1 -1 -2 -2 -2 -2 -2 -2 -3 -3 -2 -2 -1 -1 -0 -1 -1
1 2 2 2 2 2 1 2 2 1 1 2 1 0 0 1 2 2 3 2 2 2 2 2 2 3 3 -1 -2 -1 0 -1 0 2 1 -1 4 7 1 -4 -5 -5 -8 -2 -6 -15 -21 2 6 -2 -12 8 9 3 -1 5 5 2 1 2 2 2 2 2 2 2 3 3 3 2 1 1 0 -0 -0 -0 -0 -0 -0 -1 -1 -2 -2 -2 -2 -2 -1 -1 -2 -2 -2 -2 -2 -2 -3 -3 -3 -2 -1 -0 0 0 -0
1 1 1 2 2 2 1 1 0 0 1 1 0 0 0 1 1 2 2 2 2 3 3 2 2 2 4 4 1 -1 -1 -3 -1 2 6 1 1 5 10 6 -0 -6 -8 -13 -14 -11 -4 2 -2 -12 -22 8 12 4 -4 5 6 3 2 3 3 4 3 3 3 3 4 4 3 2 2 2 1 1 0 -0 -0 -0 -0 -1 -1 -1 -2 -2 -2 -2 -2 -2 -2 -2 -2 -1 -1 -2 -3 -3 -3 -3 -2 -1 -0 0 -0
1 0 0 1 1 1 0 -0 -0 0 0 0 -0 -0 0 1 1 1 1 3 3 2 3 2 1 1 4 6 5 1 -3 -4 -3 0 7 5 2 1 3 5 6 7 7 -10 -13 -12 -15 2 4 -8 -34 -4 8 7 -1 1 3 5 6 4 4 5 4 3 3 4 4 4 3 3 2 2 2 1 1 0 -0 -0 -0 -1 -1 -1 -1 -2 -3 -3 -3 -3 -2 -2 -2 -2 -1 -1 -2 -3 -3 -3 -2 -2 -1 -1 -0
0 -0 -0 0 0 -0 -0 -1 -0 -0 -1 -0 -0 -0 -1 -0 0 1 2 3 2 2 2 1 1 2 4 5 4 2 -2 -2 -1 0 0 2 2 1 1 2 6 9 10 1 -0 -3 -14 -5 -1 -3 -13 -17 -13 -2 14 1 -2 2 7 5 5 5 4 3 3 3 4 3 3 3 2 2 2 2 1 1 0 -0 -0 -0 -1 -1 -2 -3 -4 -4 -4 -3 -3 -3 -2 -2 -2 -2 -2 -2 -3 -3 -3 -2 -1 -1 -1
0 -0 -0 -0 -0 -0 -0 -0 -1 -1 -1 -0 -1 -1 -1 -0 1 2 2 2 2 2 2 0 1 3 4 3 2 0 -2 -0 2 2 -4 -6 -4 0 8 3 2 3 4 4 4 4 1 -5 -10 -6 11 -10 -23 -20 5 4 2 1 2 4 5 4 2 2 2 3 2 3 3 3 2 1 2 2 2 1 1 1 1 0 -0 -1 -3 -4 -4 -5 -5 -4 -4 -4 -3 -3 -3 -2 -2 -2 -2 -3 -2 -2 -1 -1 -1
0 0 -0 -0 0 0 0 -0 -1 -1 -0 -0 -1 -1 -1 0 2 2 1 1 2 2 1 -0 -0 1 1 1 0 -1 -1 -1 0 1 -1 -7 -8 -3 10 4 1 1 4 3 3 3 3 0 -2 -1 4 -6 -12 -17 -18 -8 1 6 2 3 5 4 1 1 2 3 3 3 3 3 2 2 2 3 3 3 3 2 1 0 -0 -2 -3 -5 -5 -6 -6 -5 -4 -4 -4 -4 -4 -4 -4 -4 -3 -3 -3 -3 -2 -2 -2
1 1 1 0 1 1 1 0 0 0 1 0 -0 -1 0 1 2 2 1 0 0 0 -0 -1 -2 -2 -1 -1 -1 -1 -0 0 -1 -1 0 -2 -5 -4 3 -0 -1 1 5 2 2 3 1 -0 2 4 1 -4 -4 -6 -17 -16 -7 1 -1 4 6 4 -1 0 3 5 4 4 3 2 1 3 4 5 5 5 4 3 2 0 -1 -2 -4 -5 -6 -6 -6 -5 -4 -4 -4 -4 -4 -4 -4 -4 -4 -4 -4 -3 -3 -3 -3
Height
3187 3186 3186 3186 3186 3186 3186 3186 3186 3186 3186 3186 3186 3185 3185 3185 3185 3185 3185 3185 3185 3185 3185 3184 3184 3184 3184 3184 3184 3184 3184 3184 3183 3183 3183 3183 3183 3183 3183 3183 3183 3183 3183 3183 3183 3183 3183 3183 3183 3182 3182 3182 3182 3182 3182 3182 3181 3181 3181 3181 3181 3180 3180 3180 3180 3179 3179 3179 3179 3179 3179 3179 3179 3179 3179 3179 3179 3179 3179 3179 3179 3179 3179 3178 3178 3178 3178 3178 3178 3178 3177 3177 3177 3177 3176 3176 3176 3176 3176 3176 3176 3176 3176
3186 3186 3186 3186 3186 3186 3186 3186 3185 3185 3185 3185 3185 3185 3185 3185 3185 3185 3185 3185 3185 3184 3184 3184 3184 3184 3184 3184 3184 3183 3183 3183 3183 3183 3183 3183 3183 3183 3183 3183 3183 3183 3183 3183 3182 3182 3182 3182 3182 3182 3182 3181 3181 3181 3181 3181 3181 3181 3181 3180 3180 3180 3180 3179 3179 3179 3178 3178 3178 3177 3177 3177 3177 3177 3177 3177 3177 3177 3177 3177 3177 3177 3177 3177 3177 3177 3177 3177 3176 3176 3176 3176 3176 3176 3176 3175 3175 3175 3175 3175 3174 3174 3174
3186 3186 3186 3186 3185 3185 3185 3185 3185 3185 3185 3185 3185 3185 3185 3185 3184 3184 3184 3184 3184 3184 3184 3184 3184 3184 3184 3184 3183 3183 3183 3183 3183 3183 3182 3182 3182 3182 3182 3182 3182 3182 3182 3182 3182 3182 3182 3181 3181 3181 3181 3181 3181 3181 3181 3180 3180 3180 3180 3180 3179 3179 3179 3179 3179 3178 3178 3178 3177 3177 3176 3176 3176 3176 3176 3176 3176 3176 3176 3176 3176 3176 3176 3176 3176 3176 3176 3176 3175 3175 3175 3175 3175 3174 3174 3174 3174 3174 3173 3173 3173 3173 3173
3185 3185 3185 3185 3185 3185 3185 3185 3185 3185 3184 3184 3184 3184 3184 3184 3184 3184 3184 3184 3184 3184 3184 3184 3184 3184 3184 3183 3183 3183 3183 3183 3183 3182 3182 3182 3182 3182 3182 3181 3181 3181 3181 3181 3181 3181 3181 3181 3181 3181 3181 3180 3180 3180 3180 3180 3179 3179 3179 3179 3179 3178 3178 3178 3178 3178 3177 3177 3177 3176 3176 3175 3175 3174 3174 3174 3174 3174 3174 3174 3174 3174 3174 3174 3174 3174 3174 3174 3174 3174 3174 3174 3173 3173 3173 3173 3172 3172 3172 3172 3172 3171 3171
3185 3184 3184 3184 3184 3184 3184 3184 3184 3184 3184 3184 3184 3184 3184 3184 3184 3184 3184 3184 3184 3184 3184 3184 3184 3184 3183 3183 3183 3183 3183 3183 3183 3182 3182 3182 3182 3182 3181 3181 3181 3181 3181 3181 3181 3181 3180 3180 3180 3180 3180 3180 3180 3179 3179 3179 3179 3179 3178 3178 3178 3178 3178 3177 3177 3177 3177 3176 3176 3176 3175 3175 3174 3174 3173 3173 3173 3172 3172 3172 3172 3172 3172 3172 3172 3172 3172 3172 3172 3172 3172 3172 3172 3172 3171 3171 3171 3171 3171 3171 3170 3170 3170
3184 3184 3184 3184 3184 3184 3184 3184 3184 3184 3184 3184 3184 3184 3184 3184 3184 3184 3184 3184 3184 3184 3184 3184 3183 3183 3183 3183 3183 3183 3183 3183 3182 3182 3182 3182 3182 3181 3181 3181 3181 3181 3181 3180 3180 3180 3180 3180 3179 3179 3179 3179 3179 3179 3178 3178 3178 3178 3178 3177 3177 3177 3177 3176 3176 3176 3176 3176 3176 3175 3175 3174 3174 3173 3173 3173 3172 3171 3171 3171 3171 3171 3171 3170 3170 3170 3170 3170 3170 3170 3170 3170 3170 3170 3170 3170 3170 3170 3169 3169 3169 3169 3168
3183 3183 3183 3183 3183 3183 3183 3183 3183 3183 3183 3183 3183 3183 3183 3183 3184 3184 3184 3184 3184 3184 3184 3183 3183 3183 3183 3183 3183 3183 3183 3183 3182 3182 3182 3182 3182 3181 3181 3181 3181 3181 3180 3180 3180 3180 3179 3179 3179 3179 3178 3178 3178 3178 3178 3177 3177 3177 3177 3176 3176 3176 3176 3176 3176 3175 3175 3175 3175 3175 3174 3174 3174 3173 3173 3172 3172 3171 3171 3170 3170 3170 3169 3169 3169 3169 3168 3168 3168 3168 3168 3168 3168 3168 3168 3168 3168 3168 3168 3168 3167 3167 3167
3183 3183 3183 3183 3183 3183 3183 3183 3183 3183 3183 3183 3183 3183 3183 3183 3183 3183 3183 3183 3183 3183 3183 3183 3183 3183 3183 3183 3183 3183 3182 3182 3182 3182 3182 3182 3182 3181 3181 3181 3181 3180 3180 3180 3180 3179 3179 3179 3178 3178 3178 3178 3177 3177 3177 3177 3176 3176 3176 3176 3176 3176 3175 3175 3175 3175 3174 3174 3174 3174 3174 3173 3173 3173 3172 3172 3172 3171 3171 3170 3170 3169 3168 3168 3168 3167 3167 3166 3166 3166 3166 3166 3166 3166 3166 3166 3166 3166 3166 3166 3166 3166 3166
3182 3182 3182 3182 3182 3182 3182 3182 3182 3182 3182 3182 3183 3183 3183 3183 3183 3183 3183 3183 3183 3183 3183 3183 3183 3183 3183 3182 3182 3182 3182 3182 3182 3182 3182 3181 3181 3181 3181 3181 3181 3180 3180 3180 3179 3179 3179 3178 3178 3178 3177 3177 3177 3176 3176 3176 3176 3176 3175 3175 3175 3175 3174 3174 3174 3174 3173 3173 3173 3173 3172 3172 3172 3172 3171 3171 3171 3171 3170 3170 3169 3169 3168 3167 3167 3166 3166 3165 3165 3164 3164 3164 3164 3164 3164 3164 3164 3164 3164 3164 3164 3164 3164
3182 3182 3182 3182 3182 3182 3182 3182 3182 3182 3182 3182 3182 3182 3182 3183 3183 3183 3183 3183 3183 3183 3183 3183 3183 3182 3182 3182 3182 3182 3182 3181 3181 3181 3181 3181 3181 3181 3181 3180 3180 3180 3180 3179 3179 3179 3178 3178 3177 3177 3177 3176 3176 3176 3176 3175 3175 3175 3174 3174 3174 3174 3173 3173 3173 3172 3172 3172 3171 3171 3171 3171 3171 3170 3170 3170 3169 3169 3169 3169 3168 3168 3167 3167 3166 3166 3165 3164 3163 3163 3162 3162 3162 3162 3162 3162 3162 3162 3162 3162 3162 3162 3162
3181 3181 3181 3181 3181 3181 3181 3181 3182 3182 3182 3182 3182 3182 3182 3182 3182 3182 3182 3182 3182 3182 3182 3182 3182 3182 3182 3182 3181 3181 3181 3181 3181 3181 3181 3180 3180 3180 3180 3180 3180 3179 3179 3179 3178 3178 3178 3177 3177 3176 3176 3176 3176 3175 3175 3175 3174 3174 3173 3173 3173 3173 3172 3172 3171 3171 3171 3171 3170 3170 3169 3169 3169 3168 3168 3168 3167 3167 3167 3167 3166 3166 3166 3166 3165 3165 3165 3164 3163 3162 3161 3161 3160 3160 3160 3159 3159 3159 3159 3159 3160 3160 3160
3181 3181 3181 3181 3181 3181 3181 3181 3181 3181 3181 3181 3181 3182 3182 3182 3182 3182 3182 3182 3182 3182 3182 3182 3181 3181 3181 3181 3181 3181 3181 3181 3180 3180 3180 3180 3179 3179 3179 3179 3179 3178 3178 3178 3178 3177 3177 3176 3176 3176 3176 3175 3175 3174 3174 3174 3173 3173 3172 3172 3172 3171 3171 3171 3170 3170 3170 3169 3169 3168 3168 3167 3167 3167 3166 3166 3166 3165 3165 3165 3165 3164 3164 3164 3163 3163 3163 3162 3162 3161 3161 3160 3160 3159 3158 3158 3157 3157 3157 3157 3157 3157 3157
3180 3180 3180 3180 3180 3181 3181 3181 3181 3181 3181 3181 3181 3181 3181 3181 3181 3181 3181 3181 3181 3181 3181 3181 3181 3181 3181 3181 3180 3180 3180 3180 3179 3179 3179 3179 3179 3178 3178 3178 3178 3177 3177 3177 3177 3176 3176 3176 3175 3175 3175 3174 3174 3173 3173 3173 3172 3172 3171 3171 3171 3170 3170 3170 3169 3169 3168 3168 3167 3167 3166 3166 3166 3165 3165 3164 3164 3164 3163 3163 3163 3162 3162 3162 3161 3161 3161 3161 3160 3160 3159 3159 3158 3158 3157 3157 3156 3156 3155 3155 3155 3155 3154
3179 3180 3180 3180 3180 3180 3180 3180 3180 3180 3180 3180 3181 3181 3181 3181 3181 3181 3181 3181 3180 3180 3180 3180 3180 3180 3180 3180 3179 3179 3179 3179 3179 3178 3178 3178 3177 3177 3177 3177 3176 3176 3176 3176 3176 3175 3175 3175 3174 3174 3173 3173 3173 3172 3172 3171 3171 3171 3170 3170 3170 3169 3169 3168 3168 3167 3167 3166 3166 3166 3165 3165 3164 3164 3163 3163 3162 3162 3161 3161 3161 3161 3160 3160 3160 3159 3159 3159 3158 3158 3157 3157 3156 3156 3156 3156 3155 3155 3154 3154 3153 3153 3152
3179 3179 3179 3179 3179 3179 3179 3180 3180 3180 3180 3180 3180 3180 3180 3180 3180 3180 3180 3180 3180 3179 3179 3179 3179 3179 3179 3179 3178 3178 3178 3178 3178 3177 3177 3177 3176 3176 3176 3176 3175 3175 3175 3174 3174 3174 3174 3173 3173 3172 3172 3172 3171 3171 3171 3170 3170 3170 3169 3169 3168 3168 3167 3167 3166 3166 3166 3165 3165 3164 3163 3163 3162 3162 3162 3161 3161 3161 3160 3160 3159 3159 3159 3158 3158 3158 3157 3157 3156 3156 3156 3155 3155 3154 3154 3154 3153 3153 3153 3152 3152 3152 3151
3178 3178 3179 3179 3179 3179 3179 3179 3179 3179 3179 3179 3179 3179 3179 3179 3179 3179 3179 3179 3179 3179 3178 3178 3178 3178 3178 3177 3177 3177 3177 3176 3176 3176 3176 3176 3175 3175 3175 3174 3174 3174 3173 3173 3173 3172 3172 3172 3171 3171 3171 3170 3170 3170 3169 3169 3169 3168 3168 3167 3167 3166 3166 3166 3165 3165 3164 3164 3163 3163 3162 3161 3161 3161 3160 3160 3159 3159 3158 3158 3158 3157 3157 3156 3156 3156 3156 3155 3155 3154 3154 3153 3153 3152 3152 3152 3151 3151 3151 3151 3150 3150 3150
3178 3178 3178 3178 3178 3178 3178 3178 3178 3178 3178 3179 3178 3178 3178 3178 3178 3178 3178 3178 3178 3178 3177 3177 3177 3177 3176 3176 3176 3176 3176 3175 3175 3175 3175 3174 3174 3174 3173 3173 3173 3172 3172 3172 3171 3171 3171 3170 3170 3170 3169 3169 3168 3168 3168 3167 3167 3167 3166 3166 3166 3165 3165 3164 3164 3163 3163 3162 3162 3161 3161 3160 3160 3159 3159 3158 3158 3157 3157 3156 3156 3156 3155 3155 3155 3154 3154 3153 3153 3152 3152 3151 3151 3151 3150 3150 3150 3149 3149 3148 3148 3148 3148
3177 3177 3177 3177 3177 3177 3177 3177 3178 3178 3178 3178 3178 3178 3178 3178 3177 3177 3177 3177 3177 3177 3176 3176 3176 3176 3176 3175 3175 3175 3174 3174 3174 3174 3173 3173 3173 3172 3172 3172 3171 3171 3171 3171 3170 3170 3169 3169 3169 3168 3168 3167 3167 3166 3166 3166 3166 3165 3165 3164 3164 3164 3163 3163 3162 3162 3161 3161 3160 3160 3159 3159 3158 3158 3157 3157 3156 3156 3155 3155 3154 3154 3153 3153 3153 3152 3152 3151 3151 3151 3150 3150 3149 3149 3148 3148 3148 3147 3147 3146 3146 3146 3146
3176 3176 3176 3176 3177 3177 3177 3177 3177 3177 3177 3177 3177 3177 3177 3177 3176 3176 3176 3176 3176 3176 3176 3176 3175 3175 3175 3174 3174 3174 3173 3173 3172 3172 3172 3172 3171 3171 3171 3171 3170 3170 3170 3169 3169 3168 3168 3168 3167 3167 3166 3166 3166 3165 3165 3164 3164 3164 3163 3163 3162 3162 3162 3161 3161 3160 3160 3159 3159 3158 3158 3157 3157 3156 3156 3155 3155 3154 3154 3153 3153 3152 3151 3151 3151 3151 3150 3150 3149 3149 3148 3148 3147 3147 3146 3146 3146 3146 3145 3145 3144 3144 3143
3175 3176 3176 3176 3176 3176 3176 3176 3176 3176 3176 3176 3176 3176 3176 3176 3176 3176 3175 3175 3175 3175 3175 3174 3174 3174 3174 3173 3173 3172 3172 3172 3171 3171 3171 3171 3170 3170 3170 3169 3169 3169 3168 3168 3167 3167 3167 3166 3166 3166 3165 3165 3164 3164 3163 3163 3162 3162 3162 3161 3161 3161 3160 3160 3159 3159 3158 3158 3157 3157 3156 3156 3156 3155 3154 3154 3153 3153 3152 3151 3151 3151 3150 3149 3149 3148 3148 3147 3147 3146 3146 3146 3145 3145 3144 3144 3144 3143 3143 3142 3142 3141 3141
3174 3175 3175 3175 3175 3175 3175 3175 3175 3175 3175 3175 3175 3175 3175 3175 3175 3174 3174 3174 3174 3174 3173 3173 3173 3173 3172 3172 3172 3171 3171 3171 3170 3170 3170 3169 3169 3169 3168 3168 3168 3167 3167 3167 3166 3166 3166 3165 3165 3164 3164 3163 3163 3162 3162 3161 3161 3161 3160 3160 3159 3159 3159 3158 3158 3157 3157 3156 3156 3155 3155 3154 3154 3153 3153 3152 3151 3151 3151 3150 3149 3149 3148 3147 3147 3146 3146 3146 3145 3144 3144 3143 3143 3142 3142 3141 3141 3141 3141 3140 3140 3139 3139
3173 3174 3174 3174 3174 3174 3174 3174 3174 3174 3174 3174 3174 3174 3173 3173 3173 3173 3173 3173 3172 3172 3172 3172 3171 3171 3171 3171 3171 3170 3170 3170 3169 3169 3168 3168 3168 3167 3167 3167 3166 3166 3166 3165 3165 3165 3164 3164 3163 3163 3162 3162 3161 3161 3161 3160 3160 3159 3159 3158 3158 3157 3157 3156 3156 3156 3155 3155 3154 3154 3153 3153 3152 3151 3151 3151 3150 3149 3149 3148 3148 3147 3146 3146 3145 3145 3144 3143 3143 3142 3142 3141 3141 3140 3139 3139 3139 3138 3138 3138 3137 3136 3136
3172 3172 3173 3173 3173 3173 3173 3173 3173 3173 3173 3173 3173 3172 3172 3172 3172 3172 3172 3171 3171 3171 3171 3171 3170 3170 3170 3170 3169 3169 3169 3168 3168 3168 3167 3167 3166 3166 3166 3166 3165 3165 3164 3164 3164 3163 3163 3162 3162 3161 3161 3160 3160 3159 3159 3159 3158 3158 3157 3157 3156 3156 3155 3155 3155 3154 3154 3153 3153 3152 3151 3151 3150 3150 3149 3149 3148 3147 3147 3146 3146 3145 3145 3144 3143 3143 3142 3141 3141 3140 3140 3139 3138 3137 3137 3136 3136 3136 3136 3135 3135 3134 3134
3171 3171 3171 3171 3172 3172 3172 3172 3172 3172 3171 3172 3171 3171 3171 3171 3171 3171 3171 3170 3170 3170 3170 3169 3169 3169 3169 3168 3168 3167 3167 3167 3166 3166 3166 3166 3165 3165 3164 3164 3164 3163 3163 3162 3162 3162 3161 3161 3160 3160 3159 3159 3158 3158 3157 3157 3156 3156 3156 3155 3155 3154 3153 3153 3153 3152 3152 3151 3151 3150 3150 3149 3149 3148 3147 3147 3146 3146 3145 3145 3144 3143 3143 3142 3141 3141 3141 3140 3139 3138 3137 3137 3136 3135 3135 3134 3134 3133 3133 3132 3132 3131 3131
3171 3171 3171 3171 3171 3171 3171 3171 3171 3171 3171 3171 3171 3170 3170 3170 3170 3169 3169 3169 3169 3169 3168 3168 3168 3167 3167 3167 3166 3166 3166 3165 3165 3165 3164 3164 3164 3163 3163 3162 3162 3161 3161 3161 3161 3160 3160 3159 3159 3158 3158 3157 3157 3156 3156 3155 3155 3154 3154 3153 3153 3152 3151 3151 3151 3150 3150 3149 3149 3148 3148 3147 3147 3146 3146 3145 3144 3144 3143 3143 3142 3141 3141 3140 3140 3139 3138 3138 3137 3136 3136 3135 3134 3133 3132 3132 3131 3131 3130 3130 3129 3129 3128
3170 3170 3170 3170 3170 3170 3170 3170 3169 3169 3169 3169 3169 3169 3169 3169 3168 3168 3168 3168 3167 3167 3167 3167 3166 3166 3166 3165 3165 3165 3164 3164 3163 3163 3163 3162 3162 3162 3161 3161 3161 3160 3160 3159 3159 3158 3158 3157 3157 3157 3156 3156 3155 3155 3154 3154 3153 3153 3152 3151 3151 3150 3150 3149 3149 3148 3148 3147 3147 3146 3146 3145 3145 3144 3144 3143 3142 3142 3141 3141 3140 3140 3139 3138 3138 3137 3136 3136 3135 3134 3134 3133 3132 3131 3130 3130 3129 3128 3127 3127 3126 3126 3126
3169 3169 3169 3169 3168 3168 3168 3168 3168 3168 3168 3168 3168 3168 3167 3167 3167 3167 3166 3166 3166 3166 3166 3165 3165 3164 3164 3164 3163 3163 3163 3162 3162 3161 3161 3161 3161 3160 3160 3159 3159 3158 3158 3157 3157 3156 3156 3156 3155 3155 3155 3154 3153 3153 3152 3152 3151 3151 3150 3150 3149 3148 3148 3147 3146 3146 3146 3145 3145 3144 3144 3143 3142 3142 3141 3141 3140 3140 3139 3138 3138 3137 3137 3136 3136 3135 3134 3134 3133 3132 3131 3131 3130 3129 3128 3127 3126 3126 3125 3124 3124 3123 3123
3168 3168 3168 3167 3167 3167 3167 3167 3167 3166 3166 3166 3166 3166 3166 3166 3166 3165 3165 3165 3165 3164 3164 3164 3163 3163 3162 3162 3162 3162 3161 3161 3161 3160 3160 3159 3159 3158 3158 3158 3157 3157 3156 3156 3155 3155 3154 3154 3153 3153 3153 3152 3152 3151 3151 3150 3149 3149 3148 3148 3147 3147 3146 3145 3145 3144 3144 3143 3143 3142 3141 3141 3140 3140 3139 3139 3138 3137 3137 3136 3136 3135 3135 3134 3133 3133 3132 3132 3131 3130 3130 3129 3128 3127 3126 3125 3124 3124 3123 3122 3121 3121 3120
3166 3166 3166 3166 3166 3166 3166 3166 3165 3165 3165 3165 3165 3164 3164 3164 3164 3164 3163 3163 3163 3162 3162 3162 3162 3161 3161 3161 3161 3160 3160 3160 3159 3159 3158 3158 3157 3157 3156 3156 3156 3155 3155 3154 3154 3153 3152 3152 3151 3151 3151 3150 3150 3149 3149 3148 3147 3147 3146 3146 3146 3145 3144 3143 3143 3142 3141 3141 3141 3140 3139 3139 3138 3138 3137 3136 3136 3135 3135 3134 3133 3133 3132 3131 3131 3131 3130 3129 3129 3128 3127 3126 3126 3125 3124 3123 3122 3121 3121 3120 3119 3118 3118
3165 3165 3165 3165 3165 3164 3164 3164 3164 3163 3163 3163 3163 3162 3162 3162 3162 3162 3162 3161 3161 3161 3161 3160 3160 3160 3159 3159 3159 3158 3158 3158 3157 3157 3156 3156 3155 3155 3154 3154 3154 3153 3153 3152 3151 3151 3151 3150 3150 3149 3149 3148 3148 3147 3146 3146 3146 3145 3144 3144 3143 3143 3142 3141 3141 3140 3140 3139 3138 3138 3137 3136 3136 3135 3135 3134 3134 3133 3132 3132 3131 3131 3130 3129 3129 3128 3127 3127 3126 3126 3125 3124 3124 3123 3122 3121 3120 3119 3118 3117 3116 3116 3115
3163 3163 3163 3163 3163 3163 3163 3162 3162 3162 3162 3161 3161 3161 3161 3160 3160 3160 3160 3160 3159 3159 3159 3158 3158 3158 3157 3157 3157 3156 3156 3156 3156 3155 3155 3154 3153 3153 3152 3152 3151 3151 3151 3150 3150 3149 3149 3148 3147 3147 3146 3146 3146 3145 3145 3144 3143 3143 3142 3142 3141 3141 3140 3140 3139 3138 3137 3137 3136 3136 3135 3134 3134 3133 3132 3132 3131 3131 3130 3129 3129 3128 3127 3127 3126 3126 3125 3124 3124 3123 3123 3122 3121 3120 3120 3119 3118 3117 3116 3115 3114 3113 3113
3161 3161 3161 3161 3161 3161 3161 3161 3161 3161 3160 3160 3160 3159 3159 3158 3158 3158 3158 3158 3157 3157 3157 3156 3156 3156 3155 3155 3155 3154 3154 3154 3153 3153 3152 3152 3151 3151 3150 3150 3149 3149 3148 3148 3147 3147 3146 3146 3145 3145 3144 3144 3143 3143 3142 3142 3141 3141 3140 3139 3139 3138 3138 3137 3137 3136 3135 3135 3134 3133 3133 3132 3131 3131 3130 3129 3129 3128 3127 3127 3126 3126 3125 3124 3124 3123 3122 3122 3121 3121 3120 3119 3119 3118 3117 3116 3115 3114 3113 3112 3111 3111 3110
3159 3159 3159 3159 3159 3159 3159 3159 3159 3159 3158 3158 3158 3157 3157 3157 3156 3156 3156 3156 3155 3155 3155 3154 3154 3154 3153 3153 3152 3152 3152 3151 3151 3151 3150 3150 3149 3148 3148 3147 3147 3146 3146 3146 3145 3144 3144 3143 3143 3142 3142 3141 3141 3140 3140 3139 3139 3138 3137 3137 3136 3136 3135 3135 3134 3134 3133 3132 3132 3131 3130 3130 3129 3128 3128 3127 3126 3126 3125 3124 3124 3123 3122 3122 3121 3121 3120 3119 3119 3118 3117 3117 3116 3115 3114 3114 3113 3112 3111 3110 3109 3108 3107
3158 3157 3157 3157 3157 3157 3157 3157 3157 3157 3156 3156 3156 3156 3155 3155 3154 3154 3154 3154 3153 3153 3153 3152 3152 3151 3151 3151 3150 3150 3149 3149 3148 3148 3148 3147 3146 3146 3145 3145 3144 3144 3143 3143 3142 3142 3141 3141 3140 3140 3139 3139 3138 3138 3137 3137 3136 3136 3135 3134 3133 3133 3132 3132 3131 3131 3131 3130 3129 3129 3128 3127 3126 3126 3125 3125 3124 3123 3122 3122 3121 3121 3120 3119 3119 3118 3117 3117 3116 3116 3115 3114 3113 3112 3112 3111 3110 3109 3108 3107 3106 3106 3105
3156 3156 3156 3156 3156 3156 3156 3156 3155 3155 3155 3155 3154 3154 3153 3153 3152 3152 3152 3151 3151 3151 3150 3150 3150 3149 3149 3148 3148 3147 3147 3146 3146 3146 3145 3145 3144 3143 3143 3142 3142 3141 3141 3140 3140 3139 3139 3138 3138 3137 3136 3136 3136 3135 3135 3134 3134 3133 3132 3131 3131 3130 3130 3129 3128 3128 3127 3127 3126 3126 3125 3125 3124 3123 3123 3122 3121 3121 3120 3119 3118 3118 3117 3117 3116 3116 3115 3114 3114 3113 3112 3111 3111 3110 3109 3108 3107 3106 3106 3105 3104 3103 3102
3155 3154 3154 3154 3154 3154 3154 3154 3153 3153 3153 3152 3152 3152 3151 3151 3150 3150 3149 3149 3149 3148 3148 3147 3147 3147 3146 3146 3146 3145 3144 3144 3143 3143 3142 3142 3141 3141 3140 3140 3139 3139 3138 3138 3137 3137 3136 3136 3135 3135 3134 3133 3133 3132 3132 3131 3131 3130 3130 3129 3128 3127 3126 3126 3125 3125 3125 3124 3124 3123 3122 3122 3121 3121 3120 3119 3119 3118 3117 3116 3116 3115 3115 3114 3113 3113 3112 3111 3111 3110 3110 3109 3108 3107 3106 3106 3105 3104 3103 3102 3101 3101 3100
3153 3153 3152 3152 3152 3152 3152 3151 3151 3151 3151 3150 3150 3150 3149 3149 3148 3148 3147 3146 3146 3146 3145 3145 3145 3145 3144 3144 3143 3143 3142 3141 3141 3141 3140 3139 3139 3138 3138 3137 3136 3136 3136 3135 3135 3134 3133 3133 3132 3132 3131 3131 3130 3130 3129 3129 3129 3128 3127 3126 3126 3125 3124 3123 3122 3122 3121 3121 3121 3120 3120 3119 3118 3118 3117 3116 3116 3115 3115 3114 3113 3112 3112 3111 3111 3110 3109 3109 3108 3107 3107 3106 3105 3105 3104 3103 3102 3101 3101 3100 3099 3098 3097
3151 3151 3151 3150 3150 3150 3150 3150 3149 3149 3148 3148 3148 3147 3147 3146 3146 3145 3145 3144 3144 3143 3143 3142 3142 3142 3141 3141 3141 3140 3140 3139 3139 3138 3138 3137 3136 3136 3135 3135 3134 3134 3133 3133 3132 3131 3131 3130 3130 3129 3129 3128 3127 3127 3127 3126 3126 3125 3125 3124 3123 3122 3121 3121 3120 3119 3118 3118 3118 3117 3117 3116 3116 3115 3114 3114 3113 3112 3112 3111 3110 3110 3109 3108 3107 3107 3106 3106 3105 3104 3104 3103 3103 3102 3101 3101 3100 3099 3098 3097 3096 3095 3094
3149 3148 3148 3148 3148 3148 3148 3147 3147 3146 3146 3146 3146 3145 3145 3144 3144 3143 3142 3142 3141 3141 3140 3140 3140 3139 3139 3139 3138 3138 3137 3136 3136 3136 3136 3135 3134 3134 3133 3132 3131 3131 3131 3130 3129 3129 3128 3128 3127 3126 3126 3125 3125 3124 3124 3124 3123 3123 3122 3121 3121 3120 3119 3118 3117 3116 3116 3115 3115 3114 3114 3113 3112 3112 3111 3111 3110 3110 3109 3108 3108 3107 3106 3106 3105 3104 3103 3102 3102 3101 3101 3100 3100 3099 3099 3098 3097 3096 3095 3094 3093 3092 3091
3146 3146 3146 3146 3146 3146 3146 3145 3145 3144 3144 3143 3143 3143 3142 3142 3141 3141 3140 3140 3139 3138 3138 3137 3137 3137 3136 3136 3136 3135 3135 3134 3134 3133 3133 3132 3132 3131 3131 3130 3129 3129 3128 3127 3127 3126 3126 3125 3124 3124 3123 3122 3122 3122 3121 3121 3120 3120 3119 3119 3118 3117 3116 3116 3115 3114 3113 3112 3112 3111 3111 3110 3110 3109 3108 3108 3107 3107 3106 3106 3105 3104 3103 3103 3102 3101 3101 3100 3099 3098 3097 3097 3096 3096 3096 3095 3094 3093 3092 3091 3091 3090 3089
3144 3144 3144 3144 3144 3143 3143 3143 3142 3142 3141 3141 3141 3140 3140 3139 3139 3138 3138 3137 3136 3136 3136 3135 3134 3134 3134 3133 3133 3132 3132 3131 3131 3131 3130 3130 3129 3128 3128 3127 3126 3126 3126 3125 3124 3123 3123 3122 3121 3121 3120 3120 3119 3119 3119 3118 3117 3117 3116 3116 3115 3115 3114 3113 3112 3111 3111 3110 3109 3108 3108 3107 3106 3106 3105 3105 3104 3104 3103 3102 3102 3101 3101 3100 3099 3098 3097 3097 3096 3095 3094 3093 3093 3092 3092 3091 3091 3090 3089 3088 3087 3086 3086
3141 3141 3141 3141 3141 3141 3141 3140 3140 3139 3139 3138 3138 3138 3137 3137 3136 3136 3135 3135 3134 3134 3133 3132 3132 3131 3131 3131 3130 3129 3129 3128 3128 3127 3127 3127 3126 3126 3125 3124 3124 3123 3123 3122 3121 3121 3120 3119 3119 3118 3117 3117 3117 3116 3116 3115 3114 3114 3113 3113 3112 3112 3111 3111 3110 3109 3108 3107 3106 3106 3105 3104 3104 3103 3102 3102 3101 3101 3100 3099 3099 3098 3097 3097 3096 3095 3094 3093 3092 3091 3091 3090 3089 3088 3088 3087 3086 3086 3085 3084 3084 3083 3082
3139 3139 3139 3139 3139 3138 3138 3138 3137 3137 3136 3136 3136 3135 3135 3134 3134 3133 3132 3132 3131 3131 3130 3130 3129 3128 3128 3127 3127 3126 3126 3126 3125 3125 3124 3123 3123 3122 3122 3121 3121 3121 3120 3119 3119 3118 3117 3116 3116 3115 3115 3114 3114 3114 3113 3112 3111 3111 3110 3110 3110 3109 3108 3107 3107 3106 3105 3104 3104 3103 3102 3101 3101 3100 3099 3099 3098 3097 3097 3096 3096 3095 3094 3094 3093 3092 3091 3090 3089 3088 3087 3086 3085 3085 3084 3083 3082 3082 3081 3081 3080 3079 3078
3136 3136 3136 3136 3136 3136 3136 3135 3135 3134 3133 3133 3133 3132 3132 3131 3131 3131 3130 3129 3129 3128 3128 3127 3126 3126 3125 3125 3124 3124 3123 3123 3122 3121 3121 3120 3120 3119 3119 3118 3118 3117 3117 3116 3116 3115 3114 3114 3113 3112 3112 3111 3111 3111 3110 3109 3109 3108 3107 3107 3106 3106 3105 3104 3104 3103 3102 3101 3101 3100 3099 3098 3097 3097 3096 3096 3095 3094 3093 3093 3092 3091 3091 3090 3089 3088 3087 3086 3085 3084 3083 3082 3081 3081 3080 3079 3078 3078 3077 3076 3076 3075 3074
3134 3134 3134 3133 3133 3133 3133 3132 3132 3131 3131 3130 3130 3130 3129 3129 3128 3128 3127 3127 3126 3125 3125 3124 3123 3122 3122 3121 3121 3121 3121 3120 3119 3119 3118 3117 3117 3116 3116 3115 3115 3114 3114 3113 3113 3112 3111 3111 3110 3109 3109 3109 3108 3108 3107 3106 3106 3105 3104 3104 3103 3103 3102 3101 3101 3100 3099 3098 3097 3097 3096 3095 3094 3094 3093 3092 3091 3091 3090 3089 3088 3088 3087 3086 3086 3085 3084 3083 3082 3081 3080 3079 3078 3077 3076 3076 3075 3074 3073 3072 3072 3071 3070
3131 3131 3131 3131 3131 3131 3130 3130 3129 3128 3128 3127 3127 3127 3126 3126 3126 3125 3124 3124 3123 3122 3122 3121 3120 3120 3119 3119 3118 3118 3117 3117 3116 3116 3115 3114 3113 3113 3112 3112 3112 3111 3111 3110 3110 3109 3108 3107 3107 3106 3106 3106 3105 3105 3104 3103 3103 3102 3101 3101 3101 3100 3099 3098 3097 3096 3096 3095 3094 3094 3093 3092 3091 3091 3090 3089 3088 3087 3086 3086 3085 3084 3083 3083 3082 3081 3080 3079 3078 3077 3076 3075 3074 3073 3073 3072 3071 3070 3070 3069 3068 3067 3066
3129 3129 3129 3128 3128 3128 3127 3127 3126 3126 3125 3125 3124 3124 3124 3123 3123 3122 3121 3121 3120 3119 3119 3118 3117 3116 3116 3116 3115 3115 3114 3114 3113 3112 3111 3111 3110 3110 3109 3109 3109 3108 3107 3107 3106 3106 3105 3104 3104 3103 3103 3103 3102 3101 3101 3100 3099 3099 3098 3098 3097 3096 3096 3095 3094 3093 3092 3092 3091 3090 3090 3089 3088 3087 3086 3086 3085 3084 3083 3082 3082 3081 3080 3079 3078 3077 3076 3075 3074 3073 3072 3071 3071 3070 3069 3068 3067 3066 3066 3065 3064 3064 3063
3127 3126 3126 3126 3126 3125 3125 3124 3123 3123 3122 3122 3121 3121 3121 3120 3119 3119 3118 3118 3117 3116 3116 3115 3114 3113 3113 3113 3112 3112 3111 3111 3110 3109 3108 3107 3107 3106 3106 3106 3105 3105 3104 3103 3102 3102 3101 3101 3101 3100 3100 3099 3099 3098 3097 3096 3096 3096 3095 3095 3094 3093 3093 3092 3091 3090 3089 3088 3088 3087 3086 3085 3085 3084 3083 3082 3082 3081 3080 3079 3078 3077 3076 3076 3075 3073 3072 3071 3071 3070 3069 3068 3067 3066 3065 3064 3064 3063 3062 3061 3061 3060 3059
3124 3124 3123 3123 3123 3122 3122 3121 3121 3120 3119 3119 3118 3118 3117 3117 3116 3116 3115 3114 3114 3113 3113 3112 3111 3111 3110 3110 3109 3109 3108 3108 3107 3106 3105 3104 3103 3103 3103 3102 3101 3101 3100 3100 3099 3098 3098 3097 3097 3097 3097 3096 3096 3095 3094 3093 3092 3092 3092 3091 3091 3090 3090 3089 3088 3087 3086 3085 3085 3084 3083 3082 3081 3081 3080 3079 3078 3077 3077 3076 3075 3074 3073 3072 3071 3070 3069 3068 3067 3066 3065 3064 3063 3062 3061 3061 3060 3059 3059 3058 3057 3056 3056
3121 3121 3121 3121 3120 3120 3119 3119 3118 3117 3116 3116 3115 3115 3114 3113 3113 3112 3112 3111 3111 3110 3110 3109 3108 3108 3107 3106 3106 3106 3105 3105 3104 3102 3101 3101 3100 3100 3099 3099 3097 3096 3096 3096 3095 3094 3094 3094 3093 3093 3093 3093 3092 3091 3090 3089 3089 3088 3088 3088 3087 3087 3086 3085 3084 3083 3083 3082 3081 3081 3080 3079 3078 3077 3076 3076 3075 3074 3073 3072 3071 3071 3070 3068 3067 3066 3065 3064 3063 3062 3061 3061 3060 3059 3058 3057 3056 3056 3055 3054 3054 3053 3052
3118 3118 3118 3117 3117 3116 3116 3116 3115 3114 3113 3113 3112 3111 3111 3110 3110 3109 3109 3108 3108 3107 3106 3106 3105 3105 3104 3103 3103 3103 3102 3101 3100 3099 3097 3097 3097 3097 3095 3094 3093 3092 3092 3092 3091 3091 3090 3089 3089 3090 3090 3089 3089 3087 3086 3086 3085 3085 3085 3084 3084 3083 3082 3082 3081 3080 3079 3079 3078 3077 3076 3076 3075 3074 3073 3072 3071 3071 3070 3069 3068 3067 3066 3065 3064 3063 3062 3061 3060 3059 3058 3057 3056 3055 3055 3054 3053 3052 3051 3051 3050 3050 3049
3115 3115 3115 3114 3114 3113 3113 3112 3111 3111 3110 3109 3109 3108 3108 3107 3106 3106 3106 3105 3105 3104 3103 3102 3102 3101 3101 3100 3099 3099 3099 3097 3096 3096 3095 3094 3094 3093 3091 3090 3088 3088 3088 3088 3087 3086 3086 3085 3085 3086 3086 3085 3085 3084 3083 3082 3081 3081 3081 3080 3080 3079 3079 3078 3077 3076 3076 3075 3075 3074 3073 3072 3071 3071 3070 3069 3068 3067 3066 3065 3064 3063 3062 3061 3060 3059 3058 3057 3056 3056 3055 3054 3053 3052 3051 3050 3050 3049 3048 3048 3047 3046 3046
3112 3111 3111 3111 3110 3110 3109 3109 3108 3107 3107 3106 3106 3105 3104 3104 3103 3103 3102 3102 3101 3101 3100 3099 3099 3098 3097 3096 3096 3095 3095 3094 3093 3092 3091 3091 3090 3088 3087 3086 3084 3084 3085 3083 3081 3080 3081 3081 3081 3082 3083 3082 3081 3080 3079 3078 3078 3077 3077 3076 3076 3076 3075 3074 3073 3073 3072 3072 3071 3071 3069 3069 3068 3067 3066 3065 3064 3063 3062 3061 3060 3059 3058 3057 3057 3056 3055 3054 3053 3052 3051 3050 3049 3048 3047 3047 3046 3046 3045 3044 3044 3043 3042
3109 3108 3108 3107 3107 3106 3106 3105 3105 3104 3103 3103 3102 3101 3101 3101 3100 3100 3099 3098 3098 3097 3096 3096 3095 3094 3093 3093 3092 3092 3091 3090 3089 3088 3087 3086 3086 3084 3082 3082 3081 3081 3080 3078 3075 3074 3076 3078 3077 3077 3078 3078 3077 3075 3075 3075 3074 3074 3073 3073 3072 3072 3071 3071 3070 3069 3069 3068 3068 3067 3066 3065 3064 3063 3062 3061 3061 3060 3059 3058 3056 3056 3055 3054 3053 3052 3051 3050 3050 3049 3048 3047 3046 3045 3044 3043 3042 3042 3041 3041 3040 3040 3039
3106 3105 3105 3104 3104 3103 3102 3102 3101 3101 3100 3099 3099 3098 3098 3097 3097 3096 3096 3095 3094 3094 3093 3092 3091 3091 3090 3089 3088 3088 3086 3086 3085 3084 3083 3082 3081 3080 3079 3078 3078 3076 3075 3073 3071 3069 3070 3073 3072 3071 3071 3073 3072 3071 3071 3071 3071 3070 3070 3069 3069 3068 3068 3067 3066 3066 3065 3065 3064 3063 3062 3061 3061 3060 3059 3058 3057 3056 3055 3054 3053 3052 3051 3050 3049 3048 3047 3047 3046 3045 3044 3043 3042 3041 3040 3039 3038 3038 3037 3037 3036 3036 3035
3102 3102 3101 3101 3100 3100 3099 3099 3098 3097 3096 3096 3095 3095 3094 3094 3093 3093 3092 3091 3091 3090 3089 3088 3087 3087 3086 3085 3084 3083 3082 3081 3081 3080 3079 3078 3077 3076 3076 3075 3073 3072 3071 3069 3067 3066 3066 3067 3066 3065 3066 3067 3066 3065 3066 3066 3066 3066 3066 3065 3065 3065 3064 3063 3063 3062 3062 3061 3060 3059 3058 3058 3057 3056 3055 3054 3054 3053 3051 3051 3049 3048 3047 3046 3046 3045 3044 3043 3042 3041 3040 3039 3038 3037 3036 3035 3034 3034 3033 3032 3032 3032 3031
3099 3099 3098 3098 3097 3096 3096 3095 3095 3094 3093 3092 3092 3091 3091 3090 3090 3089 3089 3088 3087 3086 3086 3085 3084 3083 3082 3081 3080 3079 3078 3077 3077 3076 3076 3074 3073 3072 3071 3070 3070 3069 3068 3065 3064 3064 3062 3062 3061 3059 3059 3061 3061 3060 3060 3061 3061 3061 3061 3061 3061 3061 3060 3060 3059 3059 3058 3057 3056 3056 3055 3054 3053 3052 3051 3051 3050 3049 3048 3047 3046 3045 3043 3042 3041 3041 3040 3039 3038 3037 3036 3035 3034 3033 3032 3031 3030 3029 3029 3028 3028 3027 3027
3096 3096 3095 3094 3094 3093 3092 3092 3091 3090 3090 3089 3088 3087 3087 3086 3086 3086 3085 3084 3083 3082 3081 3081 3080 3079 3079 3078 3076 3075 3074 3074 3073 3072 3071 3070 3069 3068 3067 3066 3066 3065 3064 3062 3061 3060 3058 3058 3056 3056 3055 3054 3054 3054 3054 3054 3055 3056 3056 3056 3056 3056 3056 3055 3055 3055 3054 3053 3052 3052 3051 3050 3049 3048 3047 3047 3046 3045 3044 3043 3042 3041 3040 3039 3038 3037 3036 3035 3034 3033 3031 3031 3030 3029 3028 3027 3026 3025 3025 3024 3023 3023 3023
3093 3092 3092 3091 3091 3090 3089 3088 3087 3087 3086 3086 3085 3084 3083 3083 3083 3082 3081 3081 3080 3079 3078 3077 3076 3076 3075 3074 3072 3071 3071 3071 3070 3068 3066 3065 3065 3064 3064 3062 3061 3061 3060 3059 3058 3056 3055 3053 3052 3052 3052 3049 3048 3049 3049 3048 3048 3049 3050 3050 3051 3051 3051 3051 3050 3050 3050 3049 3048 3048 3047 3046 3045 3045 3044 3043 3042 3041 3041 3039 3038 3037 3036 3035 3034 3033 3032 3031 3030 3029 3027 3026 3026 3025 3024 3023 3022 3021 3020 3020 3019 3019 3018
3090 3089 3088 3088 3087 3086 3086 3085 3084 3083 3083 3082 3081 3080 3080 3080 3079 3078 3077 3076 3076 3075 3074 3073 3073 3072 3071 3070 3069 3068 3067 3067 3066 3065 3062 3061 3061 3061 3060 3058 3056 3056 3056 3055 3054 3052 3051 3049 3048 3048 3047 3045 3044 3044 3043 3043 3043 3043 3043 3045 3045 3046 3045 3046 3046 3046 3045 3045 3044 3044 3043 3042 3041 3041 3040 3039 3038 3037 3036 3035 3034 3033 3032 3031 3030 3029 3028 3026 3026 3024 3023 3022 3021 3021 3019 3018 3017 3017 3016 3015 3015 3014 3014
3087 3086 3086 3085 3084 3083 3082 3081 3081 3080 3079 3078 3077 3077 3076 3076 3076 3075 3074 3073 3072 3071 3071 3070 3069 3068 3068 3067 3066 3065 3064 3063 3062 3061 3059 3057 3056 3056 3055 3053 3052 3051 3051 3050 3049 3048 3046 3045 3044 3043 3042 3041 3041 3040 3038 3039 3039 3038 3038 3039 3040 3040 3040 3041 3041 3041 3041 3040 3040 3039 3039 3038 3038 3037 3036 3036 3035 3034 3033 3031 3030 3029 3028 3026 3026 3025 3024 3022 3021 3020 3019 3018 3018 3017 3016 3015 3013 3013 3012 3011 3011 3010 3010